This is the latest recevied weather packets stored in our database for station/object IW7DVM-13. If no packets are shown the sender has not sent any weather packets the latest 10 day(s).
| Time | Temp. | Humidity | Pressure | Rain* | Wind** | Luminosity | Snow |
|---|---|---|---|---|---|---|---|
| 1787824203 | 32.22° C | 54% | 1012 hPa | 0 mm | - | - | - |
| 1787823904 | 32.22° C | 55% | 1012.1 hPa | 0 mm | - | - | - |
| 1787823603 | 32.22° C | 56% | 1012.2 hPa | 0 mm | - | - | - |
| 1787823303 | 31.67° C | 57% | 1012.2 hPa | 0 mm | - | - | - |
| 1787823003 | 31.67° C | 57% | 1012.1 hPa | 0 mm | - | - | - |
| 1787822703 | 31.67° C | 57% | 1012.2 hPa | 0 mm | - | - | - |
| 1787822403 | 31.11° C | 58% | 1012.2 hPa | 0 mm | - | - | - |
| 1787822103 | 31.11° C | 58% | 1012.3 hPa | 0 mm | - | - | - |
| 1787821803 | 31.11° C | 58% | 1012.3 hPa | 0 mm | - | - | - |
| 1787821503 | 30.56° C | 57% | 1012.4 hPa | 0 mm | - | - | - |
| 1787821203 | 31.11° C | 57% | 1012.3 hPa | 0 mm | - | - | - |
| 1787820903 | 31.11° C | 58% | 1012.3 hPa | 0 mm | - | - | - |
| 1787820603 | 31.11° C | 58% | 1012.3 hPa | 0 mm | - | - | - |
| 1787820303 | 31.11° C | 58% | 1012.4 hPa | 0 mm | - | - | - |
| 1787820003 | 31.11° C | 58% | 1012.6 hPa | 0 mm | - | - | - |
| 1787819703 | 31.67° C | 58% | 1012.6 hPa | 0 mm | - | - | - |
| 1787819403 | 31.67° C | 58% | 1012.5 hPa | 0 mm | - | - | - |
| 1787819103 | 31.11° C | 58% | 1012.5 hPa | 0 mm | - | - | - |
| 1787818803 | 31.11° C | 58% | 1012.6 hPa | 0 mm | - | - | - |
| 1787818503 | 31.11° C | 57% | 1012.6 hPa | 0 mm | - | - | - |
| 1787818203 | 31.11° C | 58% | 1012.7 hPa | 0 mm | - | - | - |
| 1787817903 | 30.56° C | 59% | 1012.6 hPa | 0 mm | - | - | - |
| 1787817603 | 30.56° C | 60% | 1012.6 hPa | 0 mm | - | - | - |
| 1787817303 | 30° C | 60% | 1012.8 hPa | 0 mm | - | - | - |
| 1787817003 | 29.44° C | 60% | 1012.7 hPa | 0 mm | - | - | - |
* Rain latest hour (hover to see other rain measurements)
** Current wind speed in m/s (hover to see current wind gust speed)